1486130400.61,53056,11.69,72766.5,-3.11,-43.61,-43.67,0,*50
1486130401.82,53057,11.75,72770.3,-3.11,-44.27,-44.27,0,*57
1486130403.09,53058,11.75,72770.5,-3.13,-43.29,-43.41,0,*54
1486130404.32,53059,11.75,72768.5,-3.13,-43.01,-43.01,0,*5B
1486130405.58,53060,11.75,72760.8,-3.13,-43.29,-43.49,0,*57
1486130406.87,53061,11.75,72756.3,-3.17,-43.55,-43.55,0,*54
1486130408.13,53062,11.75,72758.8,-3.17,-43.09,-42.89,0,*5E
1486130409.36,53063,11.75,72758.5,-3.17,-42.75,-42.51,0,*50
1486130410.62,53064,11.75,72752.3,-3.13,-42.63,-42.69,0,*5F
1486130411.87,53065,11.75,72762.3,-3.17,-42.63,-42.45,0,*54
1486130413.11,53066,11.75,72754.5,-3.17,-42.51,-42.63,0,*52
1486130414.4,53067,11.75,72760.0,-3.17,-42.95,-42.95,0,*52
1486130415.7,53068,11.75,72758.8,-3.17,-42.95,-42.95,0,*5D
1486130416.95,53069,11.75,72762.0,-3.17,-43.29,-43.15,0,*53
1486130418.19,53070,11.75,72766.0,-3.13,-42.89,-42.89,0,*50
1486130419.48,53071,11.75,72768.3,-3.17,-42.95,-42.95,0,*55
1486130420.69,53072,11.69,72766.5,-3.19,-43.75,-43.87,0,*55
1486130421.89,53073,11.75,72762.8,-3.19,-43.87,-43.75,0,*54
1486130423.13,53074,11.75,72754.8,-3.19,-42.75,-42.69,0,*53
1486130424.37,53075,11.69,72756.3,-3.19,-42.51,-42.31,0,*59
1486130425.63,53076,11.75,72762.8,-3.19,-42.31,-42.31,0,*5C
1486130426.89,53077,11.75,72762.0,-3.17,-42.25,-42.45,0,*55
1486130428.15,53078,11.75,72762.5,-3.17,-42.63,-42.69,0,*56
1486130429.41,53079,11.75,72762.3,-3.17,-43.49,-43.67,0,*51
1486130430.65,53080,11.75,72762.8,-3.19,-43.09,-43.15,0,*58
1486130431.93,53081,11.75,72764.8,-3.21,-42.95,-42.83,0,*58
1486130433.19,53082,11.75,72770.0,-3.19,-42.69,-42.69,0,*57
1486130434.4,53083,11.75,72764.8,-3.19,-42.89,-42.89,0,*56
1486130435.66,53084,11.75,72768.0,-3.21,-43.21,-43.35,0,*5F
1486130436.92,53085,11.75,72772.8,-3.19,-43.09,-43.09,0,*50
1486130438.19,53086,11.75,72770.0,-3.21,-43.55,-43.61,0,*5F
1486130439.42,53087,11.75,72778.0,-3.19,-43.29,-43.15,0,*5D
1486130440.71,53088,11.75,72772.5,-3.21,-43.55,-43.55,0,*56
1486130441.97,53089,11.75,72772.3,-3.21,-43.21,-43.35,0,*52
1486130443.21,53090,11.75,72766.3,-3.21,-43.35,-43.41,0,*5C
1486130444.47,53091,11.75,72766.3,-3.25,-43.49,-43.67,0,*56
1486130445.68,53092,11.69,72750.3,-3.23,-43.61,-43.61,0,*5F
1486130446.94,53093,11.75,72750.0,-3.25,-44.01,-43.87,0,*51
1486130448.19,53094,11.75,72754.5,-3.25,-43.87,-44.01,0,*56
1486130449.47,53095,11.75,72750.5,-3.25,-44.01,-44.01,0,*5E
1486130450.72,53096,11.75,72754.0,-3.25,-43.87,-44.01,0,*54
1486130451.93,53097,11.75,72750.0,-3.27,-43.95,-43.95,0,*5E
1486130453.17,53098,11.75,72750.8,-3.29,-44.07,-44.07,0,*5F
1486130454.39,53099,11.75,72750.0,-3.29,-43.87,-43.87,0,*5E
1486130455.65,53100,11.75,72752.8,-3.29,-43.67,-43.75,0,*5C
1486130456.91,53101,11.75,72760.5,-3.29,-43.67,-43.75,0,*5D
1486130458.16,53102,11.75,72770.0,-3.29,-43.67,-43.75,0,*5E
1486130459.42,53103,11.75,72766.3,-3.29,-43.55,-43.49,0,*51
1486130460.68,53104,11.69,72766.5,-3.29,-43.55,-43.49,0,*56
1486130461.94,53105,11.75,72762.5,-3.29,-43.49,-43.29,0,*5C
1486130463.17,53106,11.75,72766.3,-3.29,-43.49,-43.49,0,*59
1486130464.46,53107,11.75,72766.5,-3.29,-43.67,-43.67,0,*58
1486130465.7,53108,11.69,72766.8,-3.33,-43.61,-43.75,0,*59
1486130466.98,53109,11.75,72768.3,-3.33,-43.21,-43.21,0,*5D
1486130468.25,53110,11.75,72770.0,-3.33,-43.01,-42.95,0,*59
1486130469.47,53111,11.75,72768.3,-3.35,-43.15,-43.15,0,*52
1486130470.71,53112,11.75,72772.0,-3.33,-43.01,-42.89,0,*56
1486130471.95,53113,11.75,72772.3,-3.33,-42.89,-42.75,0,*55
1486130473.19,53114,11.75,72768.5,-3.33,-42.89,-42.75,0,*52
1486130474.45,53115,11.75,72768.8,-3.33,-42.51,-42.19,0,*5C
1486130475.71,53116,11.75,72764.3,-3.33,-43.21,-43.01,0,*51
1486130476.95,53117,11.75,72766.3,-3.33,-43.01,-43.15,0,*57
1486130478.23,53118,11.75,72766.8,-3.33,-43.01,-42.95,0,*51
1486130479.49,53119,11.75,72762.5,-3.33,-43.55,-43.41,0,*59
1486130480.77,53120,11.75,72766.8,-3.33,-43.21,-43.21,0,*56
1486130482.03,53121,11.75,72766.0,-3.33,-42.89,-42.57,0,*54
1486130483.3,53122,11.75,72764.5,-3.35,-42.19,-42.19,0,*52
1486130484.56,53123,11.75,72764.3,-3.33,-41.93,-42.13,0,*5E
1486130485.79,53124,11.75,72764.3,-3.29,-42.13,-42.25,0,*5C
1486130487.07,53125,11.75,72764.0,-3.29,-42.83,-42.83,0,*58
1486130488.33,53126,11.75,72762.0,-3.33,-43.55,-43.75,0,*52
1486130489.58,53127,11.75,72762.5,-3.33,-43.61,-43.61,0,*51
1486130490.82,53128,11.75,72762.8,-3.33,-43.75,-43.75,0,*5E
1486130492.08,53129,11.75,72762.8,-3.35,-44.47,-44.33,0,*5A
1486130493.34,53130,11.75,72762.3,-3.33,-43.81,-43.95,0,*52
1486130494.6,53131,11.75,72764.5,-3.37,-44.07,-44.01,0,*54
1486130495.83,53132,11.75,72766.3,-3.37,-43.87,-43.87,0,*51
1486130497.07,53133,11.75,72764.0,-3.37,-43.49,-43.41,0,*58
1486130498.31,53134,11.75,72764.3,-3.37,-43.61,-43.49,0,*5D
1486130499.54,53135,11.75,72766.5,-3.39,-43.41,-43.29,0,*56
1486130500.77,53136,11.75,72766.5,-3.39,-43.81,-43.87,0,*5D
1486130502.03,53137,11.75,72766.8,-3.39,-44.21,-44.21,0,*5A
1486130503.27,53138,11.75,72768.3,-3.39,-44.27,-44.21,0,*53
1486130504.53,53139,11.75,72764.8,-3.39,-44.21,-44.01,0,*56
1486130505.79,53140,11.75,72762.8,-3.45,-44.21,-44.01,0,*53
1486130507.02,53141,11.75,72766.3,-3.45,-44.01,-43.95,0,*5A
1486130508.25,53142,11.75,72762.8,-3.45,-43.81,-43.75,0,*58
1486130509.5,53143,11.75,72766.5,-3.43,-43.87,-43.67,0,*5A
1486130510.71,53144,11.75,72766.0,-3.45,-43.01,-42.89,0,*54
1486130511.96,53145,11.75,72762.5,-3.45,-42.57,-42.57,0,*54
1486130513.19,53146,11.75,72768.3,-3.45,-43.21,-43.15,0,*50
1486130514.4,53147,11.75,72764.8,-3.45,-42.75,-42.75,0,*56
1486130515.68,53148,11.75,72766.0,-3.43,-42.45,-42.31,0,*5C
1486130516.89,53149,11.75,72768.3,-3.45,-42.13,-41.87,0,*56
1486130518.17,53150,11.75,72766.0,-3.43,-41.93,-41.81,0,*55
1486130519.45,53151,11.75,72768.3,-3.43,-42.83,-42.83,0,*57
1486130520.7,53152,11.75,72770.0,-3.43,-42.89,-42.83,0,*5E
1486130521.94,53153,11.75,72774.8,-3.43,-42.63,-42.63,0,*55
1486130523.22,53154,11.75,72772.5,-3.43,-42.31,-42.45,0,*51
1486130524.47,53155,11.75,72772.3,-3.43,-42.63,-42.69,0,*59
1486130525.7,53156,11.75,72770.8,-3.43,-42.51,-42.51,0,*50
1486130526.96,53157,11.75,72774.8,-3.43,-42.63,-42.83,0,*5F
1486130528.24,53158,11.75,72772.0,-3.43,-42.69,-42.69,0,*5E
1486130529.5,53159,11.75,72770.8,-3.39,-43.09,-43.09,0,*52
1486130530.75,53160,11.75,72768.0,-3.39,-43.21,-43.09,0,*52
1486130531.99,53161,11.69,72756.0,-3.37,-43.49,-43.41,0,*5F
1486130533.23,53162,11.75,72754.0,-3.39,-43.09,-43.01,0,*52
1486130534.46,53163,11.75,72756.3,-3.39,-43.09,-43.01,0,*53
1486130535.67,53164,11.75,72766.5,-3.39,-42.75,-42.63,0,*5B
1486130536.93,53165,11.75,72764.0,-3.43,-42.89,-42.83,0,*5A
1486130538.16,53166,11.75,72762.0,-3.43,-42.63,-42.51,0,*52
1486130539.41,53167,11.75,72760.0,-3.39,-42.45,-42.45,0,*5F
1486130540.65,53168,11.75,72754.3,-3.39,-43.29,-43.41,0,*5E
1486130541.88,53169,11.75,72764.8,-3.39,-43.41,-43.21,0,*57
1486130543.11,53170,11.75,72764.8,-3.39,-43.29,-43.01,0,*53
1486130544.34,53171,11.75,72760.8,-3.39,-43.87,-43.67,0,*56
1486130545.62,53172,11.69,72754.3,-3.43,-44.47,-44.13,0,*57
1486130546.88,53173,11.75,72758.5,-3.43,-43.55,-43.35,0,*51
1486130548.13,53174,11.75,72760.3,-3.45,-44.33,-44.21,0,*55
1486130549.36,53175,11.75,72754.3,-3.45,-44.53,-44.33,0,*51
1486130550.62,53176,11.75,72748.5,-3.45,-43.81,-43.55,0,*5D
1486130551.83,53177,11.75,72752.8,-3.45,-43.41,-43.41,0,*55
1486130553.1,53178,11.75,72758.3,-3.47,-44.13,-44.01,0,*5B
1486130554.34,53179,11.75,72742.8,-3.49,-44.47,-44.27,0,*51
1486130555.55,53180,11.75,72742.5,-3.49,-43.61,-43.41,0,*53
1486130556.8,53181,11.75,72760.5,-3.51,-43.61,-43.41,0,*5B
1486130558.04,53182,11.75,72756.5,-3.51,-43.49,-43.41,0,*52
1486130559.28,53183,11.75,72754.5,-3.51,-43.49,-43.49,0,*5B
1486130560.51,53184,11.75,72758.8,-3.49,-43.41,-43.29,0,*5B
1486130561.77,53185,11.75,72756.3,-3.51,-43.21,-43.01,0,*5F
1486130563.0,53186,11.75,72756.8,-3.49,-43.15,-42.83,0,*59
1486130564.25,53187,11.75,72750.5,-3.49,-42.83,-42.83,0,*56
1486130565.53,53188,11.69,72758.0,-3.51,-42.19,-41.93,0,*51
1486130566.82,53189,11.69,72754.5,-3.51,-42.05,-42.19,0,*5C
1486130568.08,53190,11.75,72762.5,-3.51,-42.19,-42.25,0,*56
1486130569.32,53191,11.75,72762.5,-3.49,-43.29,-43.49,0,*57
1486130570.55,53192,11.75,72764.5,-3.47,-43.35,-43.35,0,*5C
1486130571.8,53193,11.75,72764.0,-3.49,-42.45,-42.45,0,*53
1486130573.06,53194,11.75,72764.8,-3.49,-41.81,-41.81,0,*54
1486130574.32,53195,11.75,72762.8,-3.47,-41.73,-41.67,0,*5E
1486130575.57,53196,11.75,72764.8,-3.47,-41.93,-41.87,0,*5D
1486130576.8,53197,11.75,72766.5,-3.47,-42.37,-42.51,0,*59
1486130578.07,53198,11.75,72766.8,-3.47,-42.69,-42.57,0,*5B
1486130579.3,53199,11.75,72768.5,-3.47,-43.15,-43.15,0,*57
1486130580.53,53200,11.75,72772.8,-3.47,-43.35,-43.35,0,*54
1486130581.76,53201,11.75,72768.3,-3.47,-43.41,-43.35,0,*56
1486130583.01,53202,11.75,72764.0,-3.47,-43.35,-43.21,0,*53
1486130584.29,53203,11.75,72766.5,-3.47,-44.13,-44.13,0,*57
1486130585.49,53204,11.75,72770.3,-3.49,-43.87,-43.61,0,*56
1486130586.75,53205,11.75,72768.3,-3.49,-44.21,-44.01,0,*5D
1486130587.99,53206,11.75,72764.8,-3.49,-44.21,-44.07,0,*58
1486130589.21,53207,11.75,72756.8,-3.53,-44.27,-44.07,0,*54
1486130590.44,53208,11.75,72756.0,-3.53,-43.41,-43.21,0,*5F
1486130591.66,53209,11.75,72752.8,-3.53,-42.89,-42.63,0,*5C
1486130592.87,53210,11.75,72752.0,-3.53,-42.13,-41.99,0,*51
1486130594.13,53211,11.75,72752.0,-3.51,-42.05,-41.99,0,*55
1486130595.42,53212,11.75,72748.8,-3.51,-42.19,-42.05,0,*5D
1486130596.68,53213,11.75,72750.5,-3.51,-41.81,-41.73,0,*5C
1486130597.94,53214,11.75,72752.5,-3.51,-41.61,-41.55,0,*51
1486130599.2,53215,11.75,72754.8,-3.51,-41.81,-41.73,0,*5A
1486130600.49,53216,11.75,72754.5,-3.51,-42.19,-42.19,0,*54
1486130601.75,53217,11.75,72752.3,-3.49,-41.93,-41.81,0,*5F
1486130603.0,53218,11.75,72748.3,-3.49,-42.57,-42.57,0,*53
1486130604.29,53219,11.75,72748.5,-3.47,-42.31,-42.31,0,*5C
1486130605.54,53220,11.75,72752.5,-3.47,-42.19,-42.13,0,*5C
1486130606.75,53221,11.75,72754.5,-3.49,-42.13,-42.13,0,*59
1486130607.98,53222,11.75,72754.0,-3.49,-41.99,-41.81,0,*53
1486130609.19,53223,11.75,72752.8,-3.49,-41.99,-41.99,0,*5B
1486130610.47,53224,11.75,72766.3,-3.47,-41.93,-41.67,0,*59
1486130611.73,53225,11.75,72764.8,-3.47,-41.93,-41.73,0,*5D
1486130612.98,53226,11.75,72766.3,-3.47,-41.93,-41.73,0,*5E
1486130614.23,53227,11.75,72764.8,-3.47,-41.99,-41.93,0,*5B
1486130615.44,53228,11.75,72764.8,-3.45,-41.87,-41.73,0,*57
1486130616.7,53229,11.75,72764.0,-3.45,-41.67,-41.67,0,*5D
1486130617.91,53230,11.75,72764.8,-3.45,-41.87,-41.73,0,*5E
1486130619.14,53231,11.75,72764.5,-3.43,-41.61,-41.49,0,*58
1486130620.36,53232,11.75,72766.8,-3.43,-41.49,-41.49,0,*51
1486130621.63,53233,11.75,72760.8,-3.43,-41.87,-41.67,0,*5E
1486130622.9,53234,11.75,72760.8,-3.43,-42.05,-42.05,0,*57
1486130624.16,53235,11.75,72760.3,-3.43,-42.45,-42.51,0,*53
1486130625.44,53236,11.75,72758.0,-3.43,-42.31,-42.45,0,*56
1486130626.7,53237,11.75,72762.8,-3.43,-42.69,-42.51,0,*5F
1486130627.98,53238,11.75,72760.5,-3.43,-42.45,-42.05,0,*5F
1486130629.2,53239,11.75,72756.5,-3.43,-41.49,-41.61,0,*50
1486130630.46,53240,11.75,72760.8,-3.43,-41.67,-41.61,0,*52
1486130631.66,53241,11.75,72758.0,-3.45,-41.73,-41.49,0,*5A
1486130632.89,53242,11.75,72764.0,-3.43,-41.49,-41.87,0,*54
1486130634.15,53243,11.75,72760.3,-3.43,-42.63,-42.83,0,*59
1486130635.4,53244,11.75,72762.3,-3.43,-42.31,-42.37,0,*56
1486130636.66,53245,11.75,72762.8,-3.43,-41.87,-41.81,0,*57
1486130637.89,53246,11.75,72756.0,-3.43,-41.61,-41.61,0,*52
1486130639.12,53247,11.75,72758.5,-3.43,-41.61,-41.61,0,*53
1486130640.36,53248,11.75,72750.3,-3.43,-41.03,-40.91,0,*56
1486130641.64,53249,11.75,72754.8,-3.43,-40.29,-40.21,0,*55
1486130642.87,53250,11.75,72756.8,-3.43,-39.91,-40.47,0,*50
1486130644.13,53251,11.75,72760.8,-3.37,-39.85,-39.97,0,*54
1486130645.37,53252,11.75,72748.3,-3.37,-41.17,-41.41,0,*57
1486130646.56,53253,11.75,72750.8,-3.39,-40.53,-40.03,0,*5E
1486130647.83,53254,11.75,72742.8,-3.37,-39.47,-39.15,0,*55
1486130649.09,53255,11.75,72744.5,-3.39,-39.59,-39.15,0,*55
1486130650.35,53256,11.75,72754.3,-3.37,-38.97,-38.49,0,*53
1486130651.59,53257,11.75,72768.5,-3.37,-38.85,-40.53,0,*55
1486130652.83,53258,11.75,72756.3,-3.39,-41.61,-42.83,0,*5F
1486130654.08,53259,11.75,72754.0,-3.39,-42.45,-43.09,0,*58
1486130655.3,53260,11.75,72750.8,-3.39,-43.01,-43.41,0,*5F
1486130656.51,53261,11.75,72758.3,-3.39,-43.01,-43.01,0,*5A
1486130657.78,53262,11.75,72756.3,-3.39,-42.95,-42.95,0,*59
1486130659.03,53263,11.75,72754.0,-3.39,-43.21,-43.21,0,*58
1486130660.26,53264,11.75,72754.8,-3.39,-43.41,-43.29,0,*51
1486130661.52,53265,11.75,72750.5,-3.43,-43.67,-43.75,0,*50
1486130662.75,53266,11.75,72754.0,-3.43,-43.87,-43.95,0,*53
1486130663.98,53267,11.75,72752.3,-3.45,-43.81,-43.75,0,*5C
1486130665.21,53268,11.75,72746.8,-3.47,-43.41,-43.35,0,*59
1486130666.44,53269,11.75,72738.3,-3.47,-43.35,-43.41,0,*58
1486130667.68,53270,11.75,72748.8,-3.47,-43.41,-43.41,0,*53
1486130668.89,53271,11.75,72754.3,-3.49,-43.61,-43.61,0,*5C
1486130670.13,53272,11.75,72742.8,-3.47,-43.41,-43.41,0,*51
1486130671.33,53273,11.75,72746.5,-3.45,-43.35,-43.35,0,*52
1486130672.56,53274,11.75,72744.0,-3.49,-43.21,-43.15,0,*5E
1486130673.84,53275,11.75,72752.8,-3.47,-42.69,-42.57,0,*5B
1486130675.07,53276,11.75,72746.8,-3.47,-43.41,-43.35,0,*56
1486130676.32,53277,11.75,72744.0,-3.47,-43.75,-43.81,0,*5F
1486130677.54,53278,11.75,72750.3,-3.49,-42.75,-42.63,0,*52
1486130678.82,53279,11.75,72746.0,-3.47,-43.09,-42.95,0,*5E
1486130680.07,53280,11.75,72748.0,-3.47,-43.35,-43.29,0,*51
1486130681.31,53281,11.75,72752.0,-3.49,-43.41,-43.21,0,*55
1486130682.52,53282,11.75,72754.0,-3.49,-43.41,-43.41,0,*50
1486130683.76,53283,11.75,72756.5,-3.49,-43.29,-43.15,0,*5E
1486130684.99,53284,11.75,72752.8,-3.49,-43.41,-43.29,0,*58
1486130686.2,53285,11.75,72756.8,-3.49,-43.49,-43.49,0,*57
1486130687.41,53286,11.75,72760.3,-3.49,-43.41,-43.49,0,*5C
1486130688.65,53287,11.75,72762.3,-3.51,-43.49,-43.49,0,*5C
1486130689.92,53288,11.75,72764.8,-3.51,-43.29,-43.41,0,*5D
1486130691.13,53289,11.75,72760.8,-3.49,-43.41,-43.49,0,*53
1486130692.37,53290,11.75,72766.0,-3.51,-43.49,-43.49,0,*5A
1486130693.61,53291,11.75,72766.3,-3.51,-43.49,-43.41,0,*53
1486130694.84,53292,11.75,72770.5,-3.51,-43.49,-43.61,0,*52
1486130696.08,53293,11.75,72770.0,-3.51,-43.49,-43.49,0,*59
1486130697.34,53294,11.75,72768.3,-3.51,-43.29,-43.01,0,*54
1486130698.6,53295,11.75,72768.3,-3.53,-43.29,-43.21,0,*55
1486130699.86,53296,11.75,72768.3,-3.53,-43.29,-43.29,0,*5E
1486130701.14,53297,11.75,72766.8,-3.51,-43.81,-43.81,0,*5D
1486130702.35,53298,11.75,72768.5,-3.53,-43.61,-43.61,0,*50
1486130703.59,53299,11.75,72766.0,-3.53,-44.27,-44.13,0,*56
1486130704.85,53300,11.75,72766.3,-3.55,-44.27,-44.13,0,*51
1486130706.14,53301,11.75,72762.5,-3.55,-43.55,-43.55,0,*57
1486130707.4,53302,11.75,72766.8,-3.53,-43.21,-43.09,0,*58
1486130708.68,53303,11.75,72770.3,-3.55,-43.29,-43.29,0,*55
1486130709.96,53304,11.75,72762.0,-3.55,-43.29,-43.09,0,*50
1486130711.23,53305,11.75,72754.8,-3.57,-43.09,-42.95,0,*55
1486130712.47,53306,11.75,72752.8,-3.55,-43.01,-43.01,0,*50
1486130713.75,53307,11.75,72746.0,-3.55,-42.45,-42.31,0,*52
1486130715.0,53308,11.75,72744.3,-3.55,-42.05,-42.13,0,*59
1486130716.24,53309,11.75,72748.8,-3.55,-42.63,-42.63,0,*5F
1486130717.47,53310,11.75,72756.0,-3.53,-42.83,-42.89,0,*5B
1486130718.71,53311,11.75,72758.5,-3.53,-42.25,-42.31,0,*55
1486130719.95,53312,11.75,72760.5,-3.53,-42.45,-42.63,0,*57
1486130721.19,53313,11.75,72760.3,-3.53,-42.83,-42.89,0,*58
1486130722.42,53314,11.75,72762.8,-3.53,-43.67,-43.87,0,*5B
1486130723.66,53315,11.75,72764.5,-3.53,-43.55,-43.49,0,*59
1486130724.92,53316,11.75,72760.0,-3.55,-43.01,-42.69,0,*5E
1486130726.2,53317,11.75,72762.5,-3.55,-42.45,-42.31,0,*53
1486130727.48,53318,11.75,72754.8,-3.51,-42.05,-41.81,0,*54
1486130728.72,53319,11.75,72752.5,-3.53,-42.05,-41.87,0,*51
1486130729.98,53320,11.75,72754.3,-3.51,-41.93,-41.73,0,*5E
1486130731.26,53321,11.75,72754.5,-3.51,-41.93,-41.93,0,*51
1486130732.52,53322,11.75,72760.0,-3.51,-42.05,-41.99,0,*54
1486130733.78,53323,11.75,72766.5,-3.51,-42.05,-41.99,0,*55
1486130735.03,53324,11.75,72764.3,-3.51,-42.37,-42.45,0,*51
1486130736.28,53325,11.75,72762.0,-3.51,-42.57,-42.37,0,*53
1486130737.52,53326,11.75,72754.8,-3.53,-42.31,-42.25,0,*51
1486130738.76,53327,11.75,72744.5,-3.51,-41.99,-41.99,0,*57
1486130739.96,53328,11.75,72772.3,-3.49,-41.99,-41.99,0,*51
1486130741.22,53329,11.75,72766.8,-3.49,-42.45,-42.19,0,*59
1486130742.46,53330,11.75,72758.0,-3.49,-42.75,-42.83,0,*51
1486130743.67,53331,11.75,72754.3,-3.49,-42.25,-42.25,0,*59
1486130744.95,53332,11.75,72756.0,-3.47,-42.31,-42.31,0,*54
1486130746.22,53333,11.75,72756.8,-3.49,-42.19,-42.19,0,*5B
1486130747.51,53334,11.75,72760.0,-3.47,-41.67,-41.67,0,*52
1486130748.76,53335,11.75,72754.0,-3.47,-41.99,-42.31,0,*52
1486130750.02,53336,11.75,72754.0,-3.47,-41.93,-41.87,0,*55
1486130751.29,53337,11.75,72764.3,-3.47,-41.93,-41.93,0,*51
1486130752.53,53338,11.75,72766.3,-3.45,-42.13,-42.31,0,*5C
1486130753.76,53339,11.75,72768.0,-3.45,-42.31,-42.37,0,*5B
1486130755.01,53340,11.75,72766.3,-3.45,-42.57,-42.69,0,*5E
1486130756.24,53341,11.75,72756.8,-3.45,-43.15,-43.09,0,*5F
1486130757.47,53342,11.75,72762.0,-3.47,-43.35,-43.35,0,*53
1486130758.7,53343,11.75,72762.5,-3.49,-43.41,-43.29,0,*52
1486130759.93,53344,11.75,72762.8,-3.47,-43.75,-43.61,0,*50
1486130761.17,53345,11.75,72760.3,-3.47,-43.61,-43.61,0,*54
1486130762.4,53346,11.75,72760.3,-3.47,-43.75,-43.61,0,*52
1486130763.63,53347,11.75,72764.8,-3.49,-43.81,-43.49,0,*5C
1486130764.85,53348,11.75,72766.5,-3.49,-43.49,-43.41,0,*5F
1486130766.11,53349,11.75,72770.0,-3.49,-43.67,-43.67,0,*56
1486130767.35,53350,11.75,72770.0,-3.47,-43.41,-43.35,0,*53
1486130768.6,53351,11.75,72772.0,-3.49,-43.29,-43.21,0,*57
1486130769.83,53352,11.75,72770.8,-3.49,-43.21,-43.01,0,*5E
1486130771.06,53353,11.75,72770.3,-3.49,-43.21,-43.15,0,*5A
1486130772.29,53354,11.75,72772.8,-3.49,-43.21,-43.01,0,*58
1486130773.52,53355,11.75,72768.5,-3.49,-43.21,-43.01,0,*59
1486130774.78,53356,11.75,72772.5,-3.51,-43.21,-43.15,0,*56
1486130776.06,53357,11.75,72778.3,-3.51,-43.29,-43.29,0,*50
1486130777.34,53358,11.75,72772.5,-3.51,-43.29,-43.21,0,*57
1486130778.61,53359,11.75,72774.8,-3.51,-43.29,-43.41,0,*50
1486130779.87,53360,11.75,72774.5,-3.51,-43.29,-43.41,0,*5A
1486130781.11,53361,11.75,72774.0,-3.51,-43.41,-43.41,0,*55
1486130782.35,53362,11.75,72774.3,-3.51,-43.41,-43.41,0,*56
1486130783.59,53363,11.75,72770.5,-3.53,-43.35,-43.29,0,*58
1486130784.85,53364,11.75,72770.5,-3.53,-43.29,-43.29,0,*52
1486130786.1,53365,11.75,72772.8,-3.51,-43.21,-43.15,0,*56
1486130787.32,53366,11.75,72770.5,-3.53,-43.35,-43.35,0,*50
1486130788.58,53367,11.75,72774.5,-3.53,-43.55,-43.55,0,*51
1486130789.82,53368,11.75,72774.8,-3.53,-43.67,-43.75,0,*5D
1486130791.03,53369,11.75,72770.8,-3.57,-43.95,-43.95,0,*5B
1486130792.29,53370,11.75,72766.5,-3.55,-43.75,-43.67,0,*52
1486130793.57,53371,11.75,72764.5,-3.55,-42.69,-42.45,0,*5E
1486130794.85,53372,11.75,72764.0,-3.55,-42.45,-42.45,0,*53
1486130796.08,53373,11.75,72764.0,-3.55,-42.25,-42.25,0,*52
1486130797.34,53374,11.75,72764.0,-3.53,-42.31,-42.45,0,*50
1486130798.57,53375,11.75,72766.8,-3.53,-42.51,-42.45,0,*57
1486130799.84,53376,11.75,72766.3,-3.53,-43.55,-43.55,0,*51
1486130801.12,53377,11.75,72762.8,-3.51,-43.81,-44.01,0,*5D
1486130802.35,53378,11.75,72768.8,-3.53,-43.55,-43.49,0,*52
1486130803.59,53379,11.75,72770.0,-3.53,-43.55,-43.49,0,*53
1486130804.85,53380,11.75,72770.8,-3.53,-43.67,-43.55,0,*59
1486130806.07,53381,11.75,72768.0,-3.53,-43.49,-43.49,0,*59
1486130807.3,53382,11.75,72774.5,-3.55,-44.07,-44.07,0,*5C
1486130808.53,53383,11.75,72766.0,-3.55,-44.07,-44.07,0,*5D
1486130809.75,53384,11.75,72762.8,-3.55,-43.87,-43.87,0,*5A
1486130811.01,53385,11.75,72764.5,-3.57,-43.81,-43.81,0,*59
1486130812.29,53386,11.75,72762.5,-3.55,-43.29,-43.21,0,*50
1486130813.52,53387,11.75,72754.0,-3.57,-43.15,-43.09,0,*56
1486130814.76,53388,11.75,72754.0,-3.57,-43.15,-43.09,0,*59
1486130816.02,53389,11.75,72752.8,-3.55,-43.09,-42.89,0,*5E
1486130817.3,53390,11.75,72754.5,-3.55,-42.83,-42.69,0,*5B
1486130818.53,53391,11.75,72754.5,-3.55,-42.63,-42.51,0,*5F
1486130819.76,53392,11.75,72758.8,-3.55,-42.63,-42.51,0,*5C
1486130820.97,53393,11.75,72758.5,-3.57,-42.51,-42.37,0,*5E
1486130822.2,53394,11.75,72758.3,-3.55,-42.25,-42.25,0,*5B
1486130823.44,53395,11.75,72754.5,-3.55,-42.25,-42.25,0,*5A
1486130824.69,53396,11.75,72754.3,-3.55,-42.31,-42.13,0,*59
1486130825.95,53397,11.75,72750.3,-3.51,-42.45,-42.37,0,*59
1486130827.18,53398,11.75,72758.3,-3.53,-42.31,-42.13,0,*51
1486130828.42,53399,11.75,72762.3,-3.53,-42.31,-42.25,0,*55
1486130829.7,53400,11.75,72756.3,-3.51,-42.45,-42.57,0,*56
1486130830.96,53401,11.75,72758.8,-3.51,-42.45,-42.37,0,*51
1486130832.23,53402,11.75,72762.8,-3.51,-42.05,-41.93,0,*5B
1486130833.52,53403,11.75,72760.3,-3.51,-42.19,-42.57,0,*5C
1486130834.73,53404,11.75,72770.8,-3.53,-42.51,-43.01,0,*57
1486130835.97,53405,11.75,72766.5,-3.51,-43.15,-43.41,0,*51
1486130837.21,53406,11.75,72768.3,-3.51,-43.49,-43.61,0,*59
1486130838.44,53407,11.75,72768.5,-3.53,-44.07,-44.13,0,*55
1486130839.65,53408,11.75,72764.0,-3.53,-43.87,-43.75,0,*52
1486130840.91,53409,11.75,72766.3,-3.53,-43.55,-43.55,0,*5E
1486130842.14,53410,11.75,72762.3,-3.53,-43.55,-43.75,0,*54
1486130843.35,53411,11.75,72764.8,-3.53,-43.95,-44.07,0,*5B
1486130844.61,53412,11.75,72756.3,-3.55,-43.87,-43.67,0,*5C
1486130845.84,53413,11.75,72758.3,-3.55,-43.87,-43.75,0,*5E
1486130847.06,53414,11.75,72760.8,-3.55,-43.87,-43.87,0,*54
1486130848.32,53415,11.75,72758.0,-3.55,-43.75,-43.67,0,*56
1486130849.55,53416,11.75,72758.0,-3.57,-43.95,-43.81,0,*51
1486130850.77,53417,11.75,72760.8,-3.57,-43.95,-43.75,0,*5B
1486130852.0,53418,11.75,72762.0,-3.57,-43.81,-43.61,0,*54
1486130853.24,53419,11.75,72760.0,-3.57,-43.75,-43.55,0,*59
1486130854.46,53420,11.75,72754.3,-3.57,-43.75,-43.61,0,*54
1486130855.7,53421,11.75,72754.0,-3.59,-43.41,-43.35,0,*5D
1486130856.94,53422,11.75,72754.5,-3.59,-43.41,-43.41,0,*5D
1486130858.2,53423,11.75,72756.8,-3.59,-43.29,-43.15,0,*53
1486130859.47,53424,11.75,72762.5,-3.59,-42.95,-42.89,0,*56
1486130860.72,53425,11.75,72760.8,-3.59,-43.35,-43.29,0,*57
1486130861.99,53426,11.75,72754.8,-3.59,-43.55,-43.41,0,*5C
1486130863.24,53427,11.75,72758.0,-3.59,-43.35,-43.29,0,*55
1486130864.48,53428,11.75,72764.3,-3.59,-43.15,-43.15,0,*57
1486130865.75,53429,11.75,72760.8,-3.59,-43.61,-43.55,0,*51
1486130866.99,53430,11.75,72766.5,-3.59,-43.41,-43.41,0,*5E
1486130868.2,53431,11.75,72762.8,-3.61,-43.49,-43.49,0,*54
1486130869.46,53432,11.75,72766.8,-3.59,-43.55,-43.61,0,*5B
1486130870.75,53433,11.75,72760.0,-3.59,-43.55,-43.55,0,*5D
1486130872.01,53434,11.75,72768.0,-3.59,-43.55,-43.41,0,*5F
1486130873.28,53435,11.75,72772.3,-3.59,-43.55,-43.41,0,*5E
1486130874.54,53436,11.75,72774.8,-3.61,-44.01,-44.01,0,*53
1486130875.75,53437,11.75,72768.3,-3.61,-44.27,-44.27,0,*52
1486130876.96,53438,11.75,72756.0,-3.61,-43.35,-43.01,0,*5A
1486130878.2,53439,11.75,72750.8,-3.65,-43.01,-42.83,0,*53
1486130879.44,53440,11.75,72756.5,-3.65,-42.51,-42.45,0,*53
1486130880.68,53441,11.75,72756.8,-3.65,-42.63,-42.31,0,*50
1486130881.97,53442,11.75,72756.3,-3.59,-42.19,-42.05,0,*56
1486130883.25,53443,11.75,72752.8,-3.59,-42.19,-42.05,0,*57
1486130884.54,53444,11.75,72756.3,-3.59,-42.31,-42.19,0,*57
1486130885.8,53445,11.75,72752.3,-3.59,-42.31,-42.13,0,*5C
1486130887.06,53446,11.75,72756.0,-3.59,-42.13,-42.05,0,*58
1486130888.3,53447,11.75,72754.5,-3.57,-42.13,-41.93,0,*5B
1486130889.53,53448,11.75,72748.3,-3.57,-42.13,-41.93,0,*54
1486130890.8,53449,11.75,72752.5,-3.57,-42.31,-42.31,0,*5E
1486130892.06,53450,11.75,72754.8,-3.55,-42.25,-42.31,0,*51
1486130893.32,53451,11.75,72760.5,-3.55,-42.69,-42.63,0,*5F
1486130894.54,53452,11.75,72756.5,-3.57,-43.41,-43.41,0,*54
1486130895.78,53453,11.75,72762.0,-3.57,-43.15,-43.09,0,*58
1486130897.04,53454,11.75,72762.5,-3.55,-43.29,-43.35,0,*5D
1486130898.27,53455,11.75,72764.0,-3.57,-43.29,-43.15,0,*5C